Weather Roundup
Issued by NWS Chicago, IL

Home | Current Version | Previous Version | Graphics & Text | Print | Product List | Glossary On
Versions: 1 2 3 4 5 6 7 8 9 10 11 12 13 14 15 16 17 18 19 20 21 22 23 24 25 26 27 28 29 30 31 32 33 34 35 36 37 38 39 40 41 42 43 44 45 46 47 48 49 50
000
NZUS59 KLOT 172108
HRRLOT

CHICAGO AREA WEATHER ROUNDUP
NATIONAL WEATHER SERVICE CHICAGO/ROMEOVILLE IL
300 PM CST TUE JAN 17 2017

NOTE: "FAIR" INDICATES FEW OR NO CLOUDS BELOW 12,000 FEET WITH NO
SIGNIFICANT WEATHER AND/OR OBSTRUCTIONS TO VISIBILITY.

* THESE STATIONS ARE NOT UNDER NWS QUALITY CONTROL. THEY ALSO MAY NOT
  REPORT WEATHER SUCH AS PRECIPITATION OR FOG.

ILZ005-006-012>014-019>023-172200-
NORTHEAST ILLINOIS

CITY           SKY/WX    TMP DP  RH WIND       PRES   REMARKS
OHARE          CLOUDY    38  36  92 W9        29.88R FOG
MIDWAY         CLOUDY    37  35  92 W10       29.90R
AURORA         CLOUDY    37  35  92 W12       29.91R FOG
LANSING*       CLOUDY    37  37 100 W9G20     29.91R
JOLIET*        CLOUDY    38  37  99 W8        29.93R FOG
WAUKEGAN       CLOUDY    38  35  89 VRB6      29.87R
DUPAGE AIRPORT CLOUDY    37  34  89 W12       29.89R FOG
WHEELING       CLOUDY    38  35  89 SW7       29.89R
KANKAKEE*      CLOUDY    37  37  97 W12G18    29.94R FOG
MORRIS*        CLOUDY    37  36  97 W12       29.92R FOG
LEWIS AIRPORT* CLOUDY    36  36 100 W10       29.91R FOG
NORTHERLY ISL    N/A     39  36  89 W8          N/A
$$

WIZ051-052-058>065-066-070>072-172200-
SOUTHEAST WISCONSIN

CITY           SKY/WX    TMP DP  RH WIND       PRES   REMARKS
MILWAUKEE      CLOUDY    38  34  85 W7        29.85R
KENOSHA*       CLOUDY    37  35  92 W10       29.87R
RACINE*        CLOUDY    38  34  85 W7        29.87R
WAUKESHA       CLOUDY    34  34 100 W9        29.86R FOG     WCI  26
WEST BEND      CLOUDY    34  34 100 W6        29.84R FOG     WCI  29
$$

INZ001>003-010>013-019-020-172200-
NORTHWEST INDIANA

CITY           SKY/WX    TMP DP  RH WIND       PRES   REMARKS
GARY*          CLOUDY    39  37  93 SW12      29.90R
MICHIGAN CITY* NOT AVBL
RENSSELAER*    NOT AVBL
VALPARAISO     CLOUDY    39  38  96 W12       29.90R FOG
$$

LMZ740>746-172200-
SOUTHERN LAKE MICHIGAN

STATION/POSITION TIME  SKY/WX   TEMP WIND        PRES    VSBY
                                AIR  DIR/SP/G
                 (UTC)          (F)  (DEG/KT/KT) (MB)    (MI)
HARRISON CRIB    2040            40  260/ 15/ 16   N/A
BURNHAM HARBOR   2100            39  240/  6/ 11   N/A
CALUMET HARBOR   2030            38  230/  8/ 13 1011.8R
BURNS HARBOR     2030            37  240/ 10/ 12 1012.9R
MICHIGAN CITY    NOT AVBL
$$

ABBREVIATIONS USED IN REMARKS
   TC - TEMPERATURE IN CELSIUS
  WCI - WIND CHILL INDEX
   HX - HEAT INDEX
  VSB - VISIBILITY
$$




USA.gov is the U.S. government's official web portal to all federal, state and local government web resources and services.